K4AVM-13 Weather Reports


time (UTC)temp
C
wind
direction
speed
KPH
gust
KPH
rain 1hr
cm
rain 24hr
cm
rain mn
cm
humidity
%
barometer
mb
20260902113201 25 232 0.0 0.0 0.00 0.00 0.00 86 1018.9
20260902112701 25 230 0.0 0.0 0.00 0.00 0.00 86 1018.9
20260902112159 25 232 0.0 0.0 0.00 0.00 0.00 87 1018.8
20260902111653 25 255 0.0 0.0 0.00 0.00 0.00 86 1018.9
20260902111149 25 260 0.0 1.6 0.00 0.00 0.00 86 1018.8
20260902110645 25 255 0.0 0.0 0.00 0.00 0.00 86 1018.9
20260902110141 25 243 0.0 0.0 0.00 0.00 0.00 86 1018.9
20260902105640 25 244 0.0 0.0 0.00 0.00 0.00 86 1018.9
20260902105136 25 251 0.0 0.0 0.00 0.00 0.00 85 1018.8
20260902104631 25 254 0.0 0.0 0.00 0.00 0.00 85 1018.7
20260902104126 25 258 0.0 1.6 0.00 0.00 0.00 84 1018.7
20260902103625 25 263 0.0 0.0 0.00 0.00 0.00 84 1018.7
20260902103121 25 264 0.0 0.0 0.00 0.00 0.00 84 1018.6
20260902102617 25 256 0.0 0.0 0.00 0.00 0.00 85 1018.5
20260902102114 25 239 0.0 0.0 0.00 0.00 0.00 84 1018.5
20260902101609 25 248 0.0 0.0 0.00 0.00 0.00 83 1018.4
20260902101109 26 247 0.0 0.0 0.00 0.00 0.00 83 1018.2
20260902100603 26 247 0.0 0.0 0.00 0.00 0.00 82 1018.3
20260902100058 26 239 0.0 0.0 0.00 0.00 0.00 82 1018.4
20260902095557 26 239 0.0 0.0 0.00 0.00 0.00 82 1018.1
20260902095056 26 247 0.0 0.0 0.00 0.00 0.00 80 1018.3
20260902094546 26 250 0.0 0.0 0.00 0.00 0.00 80 1018.2
20260902094042 26 219 0.0 0.0 0.00 0.00 0.00 79 1018.2
20260902093536 26 307 0.0 0.0 0.00 0.00 0.00 79 1018.3
20260902093031 26 250 0.0 0.0 0.00 0.00 0.00 79 1018.1
20260902092526 27 242 0.0 0.0 0.00 0.00 0.00 78 1018.1
20260902092021 27 239 0.0 0.0 0.00 0.00 0.00 77 1018.0
20260902091516 27 7 3.2 3.2 0.00 0.00 0.00 77 1018.0
20260902091012 27 326 0.0 1.6 0.00 0.00 0.00 77 1018.1
20260902090508 27 357 4.8 4.8 0.00 0.00 0.00 76 1018.1
20260902090007 27 11 3.2 3.2 0.00 0.00 0.00 77 1018.0
20260902085502 27 31 1.6 1.6 0.00 0.00 0.00 76 1018.0
20260902084956 27 207 3.2 4.8 0.00 0.00 0.00 77 1018.1
20260902084453 27 340 4.8 4.8 0.00 0.00 0.00 77 1018.2
20260902083949 26 247 1.6 1.6 0.00 0.00 0.00 78 1018.2
20260902083448 26 346 3.2 4.8 0.00 0.00 0.00 80 1017.9
20260902082943 25 246 0.0 0.0 0.00 0.00 0.00 86 1018.1
20260902082439 25 250 0.0 3.2 0.00 0.00 0.00 86 1018.0
20260902081935 25 268 0.0 1.6 0.00 0.00 0.00 87 1017.9
20260902081431 25 331 0.0 3.2 0.00 0.00 0.00 89 1018.1
20260902080926 25 279 1.6 1.6 0.00 0.00 0.00 90 1017.8
20260902080422 24 273 0.0 4.8 0.00 0.00 0.00 92 1017.8
20260902075922 23 1 0.0 1.6 0.00 0.00 0.00 94 1017.8
20260902075418 23 303 0.0 0.0 0.00 0.00 0.00 95 1017.9
20260902074913 23 242 0.0 0.0 0.00 0.00 0.00 96 1018.0
20260902074409 23 250 0.0 0.0 0.00 0.00 0.00 96 1017.9
20260902073903 23 250 0.0 0.0 0.00 0.00 0.00 96 1017.9
20260902073400 23 230 0.0 0.0 0.00 0.00 0.00 96 1018.0
20260902072855 23 224 0.0 0.0 0.00 0.00 0.00 96 1017.9
20260902072351 23 224 0.0 0.0 0.00 0.00 0.00 96 1018.0
20260902071848 23 224 0.0 0.0 0.00 0.00 0.00 96 1017.9
20260902071347 23 227 0.0 0.0 0.00 0.00 0.00 96 1017.9
20260902070843 23 239 0.0 0.0 0.00 0.00 0.00 96 1018.0
20260902070338 23 239 0.0 0.0 0.00 0.00 0.00 96 1018.0
20260902065836 23 239 0.0 0.0 0.00 0.00 0.00 96 1018.0
20260902065332 23 258 0.0 0.0 0.00 0.00 0.00 96 1018.0
20260902064827 23 258 0.0 0.0 0.00 0.00 0.00 96 1018.0
20260902064323 23 258 0.0 0.0 0.00 0.00 0.00 96 1017.9
20260902063818 23 258 0.0 0.0 0.00 0.00 0.00 96 1017.7
20260902063313 23 258 0.0 0.0 0.00 0.00 0.00 96 1017.9
20260902062807 23 258 0.0 0.0 0.00 0.00 0.00 96 1017.8
20260902062305 23 239 0.0 0.0 0.00 0.00 0.00 96 1017.6
20260902061801 23 250 0.0 0.0 0.00 0.00 0.00 96 1017.9
20260902061256 23 250 0.0 0.0 0.00 0.00 0.00 96 1017.9
20260902060754 24 250 0.0 0.0 0.00 0.00 0.00 95 1017.8
20260902060249 24 242 0.0 0.0 0.00 0.00 0.00 95 1017.6
20260902055744 24 240 0.0 0.0 0.00 0.00 0.00 95 1017.7
20260902055240 24 240 0.0 0.0 0.00 0.00 0.00 95 1017.8
20260902054735 24 241 0.0 0.0 0.00 0.00 0.00 94 1017.8
20260902054230 24 240 0.0 0.0 0.00 0.00 0.00 94 1017.5
20260902053726 24 240 0.0 0.0 0.00 0.00 0.00 94 1017.8
20260902053220 24 238 0.0 0.0 0.00 0.00 0.00 94 1017.7
20260902052719 25 238 0.0 0.0 0.00 0.00 0.00 93 1017.7
20260902052215 25 239 0.0 0.0 0.00 0.00 0.00 93 1018.0
20260902051714 25 239 0.0 0.0 0.00 0.00 0.00 93 1018.0
20260902051209 25 239 0.0 0.0 0.00 0.00 0.00 93 1017.8
20260902050704 25 239 0.0 0.0 0.00 0.00 0.00 93 1017.9
20260902050159 25 239 0.0 0.0 0.00 0.00 0.00 93 1017.8
20260902045653 25 240 0.0 0.0 0.00 0.00 0.00 93 1017.8
20260902045149 25 242 0.0 0.0 0.00 0.00 0.00 92 1017.8
20260902044644 25 242 0.0 0.0 0.00 0.00 0.00 92 1017.7
20260902044140 25 242 0.0 0.0 0.00 0.00 0.00 92 1017.8
20260902043635 25 240 0.0 0.0 0.00 0.00 0.00 91 1017.9
20260902043130 25 240 0.0 0.0 0.00 0.00 0.00 91 1017.5
20260902042629 25 240 0.0 0.0 0.00 0.00 0.00 91 1017.6
20260902042125 25 242 0.0 0.0 0.00 0.00 0.00 91 1017.8
20260902041625 25 242 0.0 0.0 0.00 0.00 0.00 91 1017.6
20260902041120 25 242 0.0 0.0 0.00 0.00 0.00 91 1017.5
20260902040619 25 242 0.0 0.0 0.00 0.00 0.00 91 1017.5
20260902040114 25 242 0.0 0.0 0.00 0.00 0.00 91 1017.5
20260902035613 25 242 0.0 0.0 0.00 0.00 0.00 91 1017.4
20260902035108 25 240 0.0 0.0 0.00 0.00 0.00 91 1017.5
20260902034607 25 243 0.0 0.0 0.00 0.00 0.00 91 1017.5
20260902034107 25 248 0.0 0.0 0.00 0.00 0.00 91 1017.3
20260902033606 25 235 0.0 0.0 0.00 0.00 0.00 91 1017.3
20260902033101 25 231 0.0 0.0 0.00 0.00 0.00 91 1017.2
20260902032600 25 231 0.0 0.0 0.00 0.00 0.00 91 1017.1
20260902032055 25 240 0.0 0.0 0.00 0.00 0.00 91 1017.0
20260902031549 25 240 0.0 0.0 0.00 0.00 0.00 90 1017.0
20260902031046 25 242 0.0 0.0 0.00 0.00 0.00 90 1017.3
20260902030545 25 240 0.0 0.0 0.00 0.00 0.00 90 1017.3
20260902030040 25 235 0.0 0.0 0.00 0.00 0.00 89 1017.1
20260902025540 26 235 0.0 0.0 0.00 0.00 0.00 88 1017.2
20260902025035 26 235 0.0 0.0 0.00 0.00 0.00 88 1017.0
20260902024531 26 235 0.0 0.0 0.00 0.00 0.00 88 1017.1
20260902024030 26 235 0.0 0.0 0.00 0.00 0.00 88 1017.3
20260902023526 26 212 0.0 0.0 0.00 0.00 0.00 88 1017.3
20260902023021 26 213 0.0 0.0 0.00 0.00 0.00 87 1017.2
20260902022515 26 211 0.0 0.0 0.00 0.00 0.00 87 1017.3
20260902022011 26 243 0.0 0.0 0.00 0.00 0.00 87 1017.3
20260902021507 26 243 0.0 0.0 0.00 0.00 0.00 87 1017.3
20260902021002 26 243 0.0 0.0 0.00 0.00 0.00 87 1017.2
20260902020457 26 243 0.0 0.0 0.00 0.00 0.00 86 1017.0
20260902015953 26 243 0.0 0.0 0.00 0.00 0.00 86 1017.2
20260902015448 26 242 0.0 0.0 0.00 0.00 0.00 85 1017.1
20260902014944 26 242 0.0 0.0 0.00 0.00 0.00 85 1016.8
20260902014440 26 243 0.0 0.0 0.00 0.00 0.00 84 1016.9
20260902013939 26 233 0.0 0.0 0.00 0.00 0.00 83 1016.9
20260902013435 27 233 0.0 0.0 0.00 0.00 0.00 83 1016.7
20260902012930 27 233 0.0 0.0 0.00 0.00 0.00 82 1016.7
20260902012426 27 233 0.0 0.0 0.00 0.00 0.00 82 1016.6
20260902011921 27 233 0.0 0.0 0.00 0.00 0.00 81 1016.4
20260902011411 27 233 0.0 0.0 0.00 0.00 0.00 81 1016.4
20260902010910 27 233 0.0 0.0 0.00 0.00 0.00 81 1016.4
20260902010405 27 233 0.0 0.0 0.00 0.00 0.00 79 1016.4
20260902005904 27 233 0.0 0.0 0.00 0.00 0.00 79 1016.4
20260902005359 27 233 0.0 0.0 0.00 0.00 0.00 79 1016.4
20260902004855 27 233 0.0 0.0 0.00 0.00 0.00 77 1016.2
20260902004354 27 233 0.0 0.0 0.00 0.00 0.00 77 1016.4
20260902003849 27 233 0.0 0.0 0.00 0.00 0.00 77 1016.2
20260902003344 28 233 0.0 0.0 0.00 0.00 0.00 77 1016.0
20260902002840 28 233 0.0 0.0 0.00 0.00 0.00 76 1016.1
20260902002339 28 233 0.0 0.0 0.00 0.00 0.00 76 1016.0
20260902001835 28 233 0.0 0.0 0.00 0.00 0.00 76 1016.0
20260902001335 28 233 0.0 0.0 0.00 0.00 0.00 76 1015.9
20260902000831 28 233 0.0 0.0 0.00 0.00 0.00 73 1015.8
20260902000330 28 233 0.0 0.0 0.00 0.00 0.00 73 1016.1
20260901235825 28 231 0.0 0.0 0.00 0.00 0.00 72 1016.0
20260901235325 29 231 0.0 0.0 0.00 0.00 0.00 72 1015.9
20260901234820 29 231 0.0 0.0 0.00 0.00 0.00 72 1015.8
20260901234314 30 231 0.0 0.0 0.00 0.00 0.00 71 1016.0
20260901233810 30 233 0.0 0.0 0.00 0.00 0.00 70 1016.0
20260901233305 30 231 0.0 0.0 0.00 0.00 0.00 69 1015.8
20260901232800 30 230 0.0 0.0 0.00 0.00 0.00 67 1015.9
20260901232249 30 227 0.0 0.0 0.00 0.00 0.00 67 1016.0
20260901231745 31 223 0.0 0.0 0.00 0.00 0.00 65 1016.1
20260901231236 31 221 0.0 0.0 0.00 0.00 0.00 64 1016.1
20260901230732 31 217 0.0 0.0 0.00 0.00 0.00 62 1016.2
20260901230231 31 218 0.0 0.0 0.00 0.00 0.00 61 1016.3
20260901225727 32 235 0.0 0.0 0.00 0.00 0.00 60 1016.2
20260901225221 32 239 0.0 0.0 0.00 0.00 0.00 59 1016.4
20260901224717 32 216 0.0 0.0 0.00 0.00 0.00 57 1016.5
20260901224213 33 209 0.0 0.0 0.00 0.00 0.00 55 1016.4
20260901223708 33 210 0.0 0.0 0.00 0.00 0.00 54 1016.4
20260901223203 33 202 0.0 0.0 0.00 0.00 0.00 53 1016.4
20260901222700 33 216 0.0 0.0 0.00 0.00 0.00 53 1016.3
20260901222155 33 224 0.0 0.0 0.00 0.00 0.00 52 1016.5
20260901221651 34 215 0.0 0.0 0.00 0.00 0.00 52 1016.6
20260901221147 34 201 0.0 0.0 0.00 0.00 0.00 52 1016.6
20260901220646 34 229 0.0 0.0 0.00 0.00 0.00 50 1016.6
20260901220145 35 233 0.0 0.0 0.00 0.00 0.00 52 1016.5
20260901215644 35 261 1.6 1.6 0.00 0.00 0.00 50 1016.5
20260901215139 35 263 1.6 1.6 0.00 0.00 0.00 49 1016.5
20260901214637 36 235 0.0 0.0 0.00 0.00 0.00 46 1016.5
20260901214136 36 228 0.0 0.0 0.00 0.00 0.00 46 1016.5
20260901213631 35 274 0.0 1.6 0.00 0.00 0.00 46 1016.5
20260901213125 36 243 0.0 1.6 0.00 0.00 0.00 48 1016.6
20260901212620 36 240 0.0 1.6 0.00 0.00 0.00 47 1016.6
20260901212116 36 225 0.0 1.6 0.00 0.00 0.00 46 1016.6
20260901211610 36 247 0.0 0.0 0.00 0.00 0.00 46 1016.6
20260901211107 36 238 1.6 4.8 0.00 0.00 0.00 48 1016.7
20260901210603 36 257 0.0 3.2 0.00 0.00 0.00 48 1016.7
20260901210058 36 240 0.0 1.6 0.00 0.00 0.00 48 1016.7
20260901205553 36 12 3.2 3.2 0.00 0.00 0.00 46 1016.8
20260901205048 36 3 0.0 1.6 0.00 0.00 0.00 46 1016.7
20260901204544 36 225 0.0 0.0 0.00 0.00 0.00 46 1016.8
20260901204038 36 17 1.6 1.6 0.00 0.00 0.00 47 1016.7
20260901203533 36 235 0.0 1.6 0.00 0.00 0.00 47 1016.8
20260901203028 36 228 0.0 1.6 0.00 0.00 0.00 46 1017.0
20260901202523 36 225 0.0 4.8 0.00 0.00 0.00 46 1016.9
20260901202019 36 318 1.6 3.2 0.00 0.00 0.00 46 1017.0
20260901201514 36 20 3.2 4.8 0.00 0.00 0.00 46 1017.0
20260901201008 36 326 3.2 4.8 0.00 0.00 0.00 46 1017.0
20260901200503 35 226 0.0 3.2 0.00 0.00 0.00 48 1017.2
20260901200002 35 229 0.0 3.2 0.00 0.00 0.00 49 1017.1
20260901195500 35 235 1.6 3.2 0.00 0.00 0.00 49 1017.1
20260901194954 36 19 3.2 4.8 0.00 0.00 0.00 45 1017.1
20260901194450 36 221 0.0 3.2 0.00 0.00 0.00 45 1017.2
20260901193946 36 211 0.0 0.0 0.00 0.00 0.00 46 1017.3
20260901193445 36 0 4.8 4.8 0.00 0.00 0.00 45 1017.2
20260901192944 36 271 0.0 4.8 0.00 0.00 0.00 46 1017.1
20260901192440 36 228 0.0 3.2 0.00 0.00 0.00 45 1017.1
20260901191936 36 265 1.6 3.2 0.00 0.00 0.00 46 1017.3
20260901191432 36 219 0.0 1.6 0.00 0.00 0.00 44 1017.4
20260901190928 36 337 1.6 1.6 0.00 0.00 0.00 46 1017.4
20260901190427 36 157 0.0 3.2 0.00 0.00 0.00 46 1017.5
20260901185925 35 239 0.0 1.6 0.00 0.00 0.00 50 1017.6
20260901185426 36 232 0.0 1.6 0.00 0.00 0.00 44 1017.5
20260901184926 36 20 3.2 3.2 0.00 0.00 0.00 43 1017.6
20260901184421 36 253 1.6 3.2 0.00 0.00 0.00 45 1017.6
20260901183916 36 353 1.6 4.8 0.00 0.00 0.00 45 1017.9
20260901183416 36 24 4.8 6.4 0.00 0.00 0.00 46 1018.0
20260901182912 36 231 0.0 1.6 0.00 0.00 0.00 49 1018.2
20260901182408 36 206 3.2 4.8 0.00 0.00 0.00 48 1017.9
20260901181902 35 237 0.0 1.6 0.00 0.00 0.00 47 1017.8
20260901181356 36 53 3.2 3.2 0.00 0.00 0.00 44 1017.9
20260901180855 36 268 4.8 4.8 0.00 0.00 0.00 47 1017.9
20260901180354 35 235 0.0 1.6 0.00 0.00 0.00 48 1017.7
20260901175853 35 90 3.2 4.8 0.00 0.00 0.00 49 1017.7
20260901175348 35 238 1.6 4.8 0.00 0.00 0.00 49 1017.6
20260901174843 36 237 0.0 4.8 0.00 0.00 0.00 56 1017.6
20260901174339 36 65 0.0 0.0 0.00 0.00 0.00 47 1017.8
20260901173834 36 254 1.6 4.8 0.00 0.00 0.00 50 1017.7
20260901173329 35 237 0.0 1.6 0.00 0.00 0.00 51 1017.8
20260901172826 35 97 1.6 4.8 0.00 0.00 0.00 52 1017.8
20260901172325 35 219 1.6 3.2 0.00 0.00 0.00 48 1018.0
20260901171823 36 240 0.0 1.6 0.00 0.00 0.00 55 1017.8
20260901171323 35 263 0.0 1.6 0.00 0.00 0.00 50 1018.0
20260901170822 35 6 1.6 4.8 0.00 0.00 0.00 49 1017.9
20260901170316 35 236 3.2 3.2 0.00 0.00 0.00 52 1017.8
20260901165815 35 91 3.2 4.8 0.00 0.00 0.00 50 1017.8
20260901165310 34 209 1.6 3.2 0.00 0.00 0.00 51 1017.9
20260901164807 35 219 1.6 6.4 0.00 0.00 0.00 48 1018.1
20260901164302 35 260 1.6 4.8 0.00 0.00 0.00 52 1018.4
20260901163757 35 213 1.6 6.4 0.00 0.00 0.00 49 1018.3
20260901163256 35 237 0.0 3.2 0.00 0.00 0.00 52 1018.3
20260901162751 35 243 0.0 1.6 0.00 0.00 0.00 53 1018.6
20260901162251 34 216 3.2 4.8 0.00 0.00 0.00 52 1018.6
20260901161749 35 346 3.2 12.9 0.00 0.00 0.00 52 1018.6
20260901161244 34 272 1.6 6.4 0.00 0.00 0.00 54 1018.8
20260901160740 33 229 0.0 1.6 0.00 0.00 0.00 58 1018.8
20260901160236 33 218 0.0 3.2 0.00 0.00 0.00 57 1018.7
20260901155735 33 165 0.0 3.2 0.00 0.00 0.00 59 1018.8
20260901155230 33 236 1.6 6.4 0.00 0.00 0.00 61 1018.7
20260901154725 33 237 1.6 1.6 0.00 0.00 0.00 61 1018.7
20260901154220 33 241 3.2 3.2 0.00 0.00 0.00 61 1019.0
20260901153716 33 217 0.0 3.2 0.00 0.00 0.00 66 1018.7
20260901153209 33 201 1.6 1.6 0.00 0.00 0.00 60 1018.8
20260901152704 33 233 0.0 3.2 0.00 0.00 0.00 66 1019.0
20260901152202 32 51 1.6 3.2 0.00 0.00 0.00 64 1018.9
20260901151659 33 223 1.6 3.2 0.00 0.00 0.00 64 1019.2
20260901151158 32 125 1.6 1.6 0.00 0.00 0.00 63 1019.1
20260901150658 33 297 0.0 6.4 0.00 0.00 0.00 65 1019.2
20260901150156 32 230 1.6 3.2 0.00 0.00 0.00 70 1018.9
20260901145653 32 220 1.6 3.2 0.00 0.00 0.00 65 1019.2
20260901145148 32 351 1.6 3.2 0.00 0.00 0.00 66 1019.2
20260901144644 32 228 0.0 3.2 0.00 0.00 0.00 66 1019.3
20260901144138 31 224 0.0 0.0 0.00 0.00 0.00 68 1019.4
20260901143633 31 211 0.0 0.0 0.00 0.00 0.00 71 1019.5
20260901143130 31 88 1.6 6.4 0.00 0.00 0.00 72 1019.4
20260901142626 30 219 0.0 0.0 0.00 0.00 0.00 75 1019.2
20260901142125 30 223 0.0 3.2 0.00 0.00 0.00 74 1019.2
20260901141620 31 219 1.6 3.2 0.00 0.00 0.00 71 1019.3
20260901141120 31 223 0.0 1.6 0.00 0.00 0.00 70 1019.3
20260901140619 31 246 1.6 1.6 0.00 0.00 0.00 73 1019.4
20260901140118 31 216 0.0 1.6 0.00 0.00 0.00 72 1019.3
20260901135618 30 172 1.6 3.2 0.00 0.00 0.00 74 1019.3
20260901135113 30 206 0.0 1.6 0.00 0.00 0.00 75 1019.3
20260901134609 30 220 0.0 1.6 0.00 0.00 0.00 76 1019.4
20260901134104 30 199 0.0 0.0 0.00 0.00 0.00 76 1019.2
20260901133603 30 197 0.0 1.6 0.00 0.00 0.00 77 1019.2
20260901133102 29 224 0.0 1.6 0.00 0.00 0.00 79 1019.3
20260901132556 30 230 1.6 1.6 0.00 0.00 0.00 77 1019.3
20260901132050 28 229 0.0 0.0 0.00 0.00 0.00 80 1019.3
20260901131551 28 233 1.6 1.6 0.00 0.00 0.00 79 1019.2
20260901131046 28 218 0.0 0.0 0.00 0.00 0.00 82 1019.3
20260901130545 28 201 0.0 0.0 0.00 0.00 0.00 83 1019.3
20260901130044 28 139 0.0 0.0 0.00 0.00 0.00 82 1019.3
20260901125542 28 220 0.0 1.6 0.00 0.00 0.00 82 1019.2
20260901125038 28 166 0.0 1.6 0.00 0.00 0.00 82 1019.4
20260901124538 27 190 0.0 1.6 0.00 0.00 0.00 84 1019.4
20260901124033 27 224 0.0 1.6 0.00 0.00 0.00 84 1019.3
20260901123527 27 212 0.0 1.6 0.00 0.00 0.00 84 1019.3
20260901123022 27 187 0.0 0.0 0.00 0.00 0.00 86 1019.4
20260901122520 26 187 0.0 0.0 0.00 0.00 0.00 89 1019.5
20260901122019 25 195 0.0 0.0 0.00 0.00 0.00 91 1019.3
20260901121514 25 255 0.0 0.0 0.00 0.00 0.00 94 1019.5
20260901121009 24 244 0.0 0.0 0.00 0.00 0.00 96 1019.4
20260901120503 24 244 0.0 0.0 0.00 0.00 0.00 96 1019.5
20260901115959 24 244 0.0 0.0 0.00 0.00 0.00 97 1019.5
20260901115454 23 244 0.0 0.0 0.00 0.00 0.00 98 1019.3
20260901114951 23 244 0.0 0.0 0.00 0.00 0.00 99 1019.3
20260901114446 23 244 0.0 0.0 0.00 0.00 0.00 99 1019.2
20260901113944 23 246 0.0 0.0 0.00 0.00 0.00 99 1019.3